Vorticity
9 8 7 6 7 8 6 5 5 4 10 7 7 8 8 10 12 11 8 8 8 10 15 14 8 7 7 11 11 15 11 12 8 -4 5 0 16 -1 8 3 -8 -0 6 3 2
9 8 7 8 8 8 5 5 7 8 9 8 7 9 9 7 8 10 12 12 10 9 9 13 12 8 8 13 11 7 8 18 -5 -2 1 -2 -0 11 3 4 6 6 7 4 3
8 8 8 7 7 6 6 8 6 7 6 8 9 8 9 10 10 10 11 10 11 11 11 10 13 8 10 14 12 8 12 15 6 17 13 6 7 3 0 1 6 3 4 1 2
8 7 6 6 6 7 8 3 5 5 5 6 7 5 5 6 8 8 7 14 13 12 11 11 11 12 14 12 9 9 21 13 12 2 -1 8 8 8 9 18 8 5 4 4 7
8 7 7 8 7 7 5 5 7 7 8 7 7 7 5 7 5 4 8 8 11 12 10 14 11 10 13 11 11 18 9 15 15 15 17 21 16 11 2 3 5 2 2 1 -0
7 7 6 5 5 5 6 7 7 7 7 8 8 8 9 6 5 7 3 10 12 12 10 14 13 5 13 14 13 9 9 4 3 14 11 -2 -7 -3 6 3 3 3 4 0 -0
7 7 6 6 6 6 6 6 7 7 7 8 8 8 9 9 7 9 11 9 12 10 10 13 15 6 17 16 12 13 3 9 10 8 5 10 24 8 8 1 6 6 7 7 5
8 8 7 6 6 6 6 7 8 8 7 7 8 9 7 8 10 10 10 12 12 13 11 15 12 6 16 -2 22 10 16 -13 7 2 7 -8 6 4 5 3 4 5 5 9 9
8 8 8 7 6 6 6 8 8 8 8 7 7 8 10 8 8 9 10 11 12 13 12 13 9 13 14 13 -0 -9 8 18 1 2 3 -7 6 2 3 3 6 8 9 11 14
8 9 8 8 7 6 7 8 8 8 8 7 8 9 3 10 8 9 11 14 15 14 10 11 7 14 16 8 5 9 -4 6 11 9 3 -6 9 5 4 3 5 5 7 7 9
8 8 8 8 8 7 7 8 8 8 9 6 -0 10 6 12 10 8 15 13 16 14 7 9 4 15 19 -2 31 18 10 -0 19 11 18 20 14 5 5 8 9 10 10 7 10
9 9 8 9 9 7 7 7 8 2 11 12 8 -2 8 11 10 11 9 7 11 11 11 8 12 18 -1 -8 36 11 1 8 2 -2 16 7 7 7 6 6 6 4 10 11 10
9 9 9 8 10 9 7 8 8 8 6 9 14 8 6 11 9 8 5 9 3 10 10 8 17 10 17 1 1 14 9 3 -1 2 17 7 6 5 5 5 4 5 5 3 3
8 8 9 9 10 7 9 10 9 10 8 19 25 18 7 8 15 6 3 8 6 10 9 8 17 21 11 19 24 12 15 10 17 -6 1 -9 17 5 1 5 4 4 5 4 3
9 8 9 9 9 10 10 10 9 10 6 22 14 6 9 -2 26 6 4 5 4 3 -9 26 8 13 20 14 1 14 6 18 9 -3 9 9 -2 31 3 6 2 2 4 3 3
10 9 10 10 11 9 11 11 9 -1 17 11 16 17 13 7 10 18 -1 3 4 5 -0 16 5 5 -2 2 -4 9 5 9 12 12 4 21 -11 30 13 8 2 4 4 3 6
15 9 10 10 10 10 11 11 -1 -3 8 23 14 7 12 9 7 18 6 1 -12 -2 12 10 5 3 12 5 23 13 -9 2 4 2 8 20 6 -13 18 14 -1 5 5 8 11
14 12 10 10 10 11 12 13 -3 38 -8 6 6 12 12 13 11 14 10 5 1 -14 11 -4 20 -0 20 5 13 8 -21 5 6 9 15 9 15 10 17 0 6 5 7 16 12
12 19 12 12 9 11 13 -10 15 12 22 8 18 13 6 6 15 14 8 7 6 -2 -28 3 29 4 25 8 11 18 -11 -1 2 10 7 5 23 4 15 9 3 6 15 14 12
16 20 14 14 12 11 10 -26 -18 -7 25 9 -2 -5 13 13 -8 9 5 34 4 -1 -21 13 10 0 14 7 8 11 7 0 7 7 6 14 13 -25 20 5 5 10 12 10 8
13 14 13 18 12 13 -5 -10 0 9 13 15 -1 31 14 16 -4 7 27 18 0 5 3 8 -0 25 15 4 6 -3 19 -6 9 -2 9 8 19 40 19 14 9 11 8 7 5
12 2 9 18 13 10 -6 -9 3 -18 11 6 13 -14 9 18 23 7 -11 -19 39 1 1 4 17 3 3 12 7 12 14 -4 -15 22 4 5 16 16 -0 7 10 8 6 4 4
1 3 7 15 13 6 3 4 8 6 -15 16 8 17 -3 10 13 5 13 3 32 13 16 3 26 -5 24 15 14 11 10 7 -14 -3 8 -10 18 15 11 5 9 7 5 5 4
7 -8 10 7 11 1 18 6 19 12 1 -17 14 14 13 8 -8 51 10 18 -10 7 0 17 -1 -6 -8 22 30 1 10 3 5 8 9 -14 6 18 8 6 7 8 5 4 4
18 15 -4 15 9 11 7 2 34 13 4 -3 -6 6 13 12 18 -18 12 8 14 21 -2 -0 9 3 -5 -2 10 17 35 16 1 -14 -1 24 20 -7 16 14 9 6 5 6 5
-13 16 -23 19 -10 30 10 12 -6 45 -8 33 6 -7 11 6 18 18 -3 11 11 8 1 -2 6 15 6 -1 1 3 3 15 24 9 5 -13 -11 17 11 5 8 1 5 4 6
15 -21 27 25 25 17 -3 14 18 8 11 30 13 7 -12 -7 19 16 25 8 9 -0 12 5 -6 6 17 12 12 26 7 -5 3 10 23 12 17 10 10 7 11 16 4 5 6
Height
3105 3105 3106 3106 3107 3107 3108 3108 3108 3107 3107 3108 3108 3108 3108 3108 3109 3110 3111 3114 3115 3117 3119 3122 3125 3129 3132 3136 3140 3144 3147 3149 3154 3156 3158 3160 3164 3165 3166 3167 3168 3169 3171 3173 3174
3103 3103 3104 3104 3105 3106 3107 3107 3106 3106 3106 3106 3107 3107 3107 3106 3107 3109 3110 3111 3112 3114 3116 3118 3121 3125 3129 3133 3138 3141 3145 3146 3150 3152 3152 3154 3161 3165 3167 3167 3168 3169 3171 3173 3175
3100 3102 3102 3103 3104 3104 3105 3106 3105 3105 3105 3105 3105 3106 3105 3106 3107 3107 3108 3109 3109 3111 3114 3116 3119 3122 3126 3130 3134 3138 3142 3143 3147 3150 3153 3153 3157 3157 3163 3166 3168 3170 3170 3172 3175
3098 3099 3100 3101 3102 3103 3104 3104 3104 3104 3104 3104 3104 3104 3105 3105 3108 3106 3107 3107 3107 3108 3111 3114 3116 3119 3124 3127 3131 3135 3138 3141 3144 3148 3150 3153 3156 3156 3159 3162 3165 3168 3170 3172 3174
3095 3096 3097 3098 3100 3101 3101 3102 3102 3102 3102 3102 3102 3103 3104 3105 3104 3104 3105 3105 3106 3107 3109 3112 3115 3118 3122 3125 3129 3133 3135 3140 3144 3147 3149 3153 3155 3157 3160 3161 3163 3166 3169 3170 3172
3093 3094 3095 3096 3097 3098 3099 3100 3100 3100 3100 3100 3101 3101 3102 3104 3102 3102 3102 3103 3104 3105 3107 3110 3113 3117 3121 3124 3128 3130 3133 3138 3143 3147 3150 3153 3155 3158 3158 3160 3162 3165 3167 3168 3169
3090 3091 3092 3093 3094 3095 3096 3096 3097 3097 3098 3099 3099 3099 3100 3101 3100 3100 3100 3101 3102 3103 3106 3109 3113 3117 3119 3122 3127 3129 3133 3138 3143 3145 3148 3152 3155 3156 3158 3160 3162 3163 3165 3167 3168
3086 3087 3089 3089 3091 3091 3092 3093 3094 3095 3096 3096 3097 3097 3097 3098 3098 3098 3098 3099 3101 3102 3106 3109 3113 3115 3118 3123 3127 3129 3135 3137 3142 3145 3148 3152 3155 3156 3157 3159 3160 3160 3161 3163 3164
3082 3083 3085 3086 3088 3089 3090 3090 3091 3092 3094 3094 3095 3095 3096 3096 3096 3096 3097 3098 3099 3101 3104 3108 3113 3115 3118 3122 3127 3132 3134 3138 3142 3144 3147 3150 3151 3154 3156 3157 3158 3159 3160 3160 3162
3078 3079 3081 3083 3084 3085 3087 3088 3088 3090 3091 3092 3092 3095 3094 3094 3094 3094 3095 3097 3099 3101 3104 3108 3112 3114 3118 3120 3125 3130 3134 3137 3139 3145 3147 3148 3150 3151 3153 3155 3156 3156 3156 3157 3158
3073 3074 3076 3078 3080 3082 3084 3085 3088 3088 3088 3090 3090 3091 3091 3092 3093 3094 3095 3096 3098 3101 3103 3107 3112 3113 3115 3120 3123 3126 3129 3133 3138 3142 3147 3148 3150 3151 3153 3154 3155 3156 3155 3155 3153
3067 3070 3071 3073 3075 3078 3079 3081 3083 3086 3085 3086 3087 3088 3089 3090 3092 3093 3096 3099 3099 3100 3103 3108 3110 3113 3117 3121 3124 3127 3130 3134 3139 3142 3145 3147 3149 3151 3151 3152 3153 3153 3153 3152 3151
3062 3064 3067 3069 3071 3074 3075 3077 3079 3080 3082 3083 3083 3085 3087 3090 3090 3092 3096 3098 3100 3101 3103 3106 3110 3113 3117 3121 3124 3127 3129 3131 3135 3140 3144 3146 3149 3149 3150 3150 3151 3151 3151 3150 3149
3056 3060 3061 3064 3069 3069 3072 3074 3075 3077 3079 3079 3078 3081 3084 3086 3090 3092 3094 3098 3098 3101 3104 3107 3108 3111 3115 3120 3124 3126 3130 3132 3134 3138 3141 3143 3146 3145 3146 3148 3148 3148 3148 3147 3146
3050 3054 3056 3059 3062 3065 3069 3071 3073 3076 3077 3074 3073 3075 3078 3084 3086 3089 3093 3096 3099 3099 3103 3105 3108 3111 3114 3117 3121 3124 3129 3133 3134 3136 3138 3141 3144 3139 3141 3144 3146 3146 3146 3145 3144
3044 3048 3051 3054 3057 3061 3064 3067 3072 3077 3070 3068 3068 3070 3074 3078 3082 3085 3090 3095 3098 3101 3102 3103 3107 3111 3114 3117 3120 3123 3128 3133 3135 3136 3138 3136 3139 3135 3136 3139 3142 3143 3143 3142 3142
3037 3041 3046 3049 3052 3056 3059 3064 3070 3066 3065 3064 3065 3067 3071 3074 3078 3082 3085 3089 3093 3098 3100 3104 3107 3109 3112 3116 3120 3122 3126 3133 3137 3136 3135 3134 3137 3132 3134 3136 3138 3139 3140 3140 3139
3030 3035 3039 3044 3047 3051 3055 3060 3058 3056 3058 3059 3062 3065 3068 3072 3076 3078 3082 3085 3090 3092 3097 3100 3107 3107 3108 3112 3114 3119 3122 3123 3125 3129 3132 3133 3131 3128 3129 3131 3134 3135 3135 3135 3135
3025 3028 3034 3036 3042 3046 3050 3050 3049 3051 3054 3056 3059 3063 3065 3068 3072 3075 3079 3082 3085 3089 3093 3096 3099 3103 3106 3109 3115 3116 3119 3122 3123 3127 3129 3129 3126 3126 3125 3128 3130 3131 3132 3132 3132
3019 3023 3028 3031 3036 3039 3043 3042 3045 3048 3050 3053 3055 3058 3059 3063 3067 3070 3074 3078 3081 3086 3089 3092 3097 3101 3104 3108 3111 3112 3117 3121 3121 3125 3126 3124 3122 3118 3118 3122 3126 3128 3129 3130 3130
3016 3019 3022 3026 3030 3033 3032 3035 3041 3045 3048 3051 3053 3054 3057 3059 3063 3065 3068 3072 3077 3081 3086 3089 3092 3100 3103 3103 3104 3108 3110 3114 3116 3118 3117 3119 3115 3112 3117 3120 3123 3125 3126 3127 3128
3011 3015 3019 3020 3025 3023 3026 3031 3038 3042 3045 3047 3049 3052 3055 3057 3059 3063 3064 3069 3071 3077 3081 3086 3089 3094 3098 3100 3102 3105 3106 3108 3109 3114 3114 3116 3113 3112 3115 3118 3120 3123 3124 3125 3125
3006 3010 3014 3016 3016 3017 3022 3027 3032 3037 3041 3044 3046 3049 3051 3054 3057 3059 3062 3066 3068 3072 3077 3082 3086 3092 3099 3100 3098 3098 3100 3103 3105 3107 3109 3112 3110 3110 3112 3115 3118 3120 3122 3123 3124
3002 3005 3009 3010 3011 3015 3019 3023 3026 3032 3036 3041 3043 3045 3048 3050 3053 3054 3059 3062 3066 3070 3074 3078 3080 3082 3083 3083 3087 3091 3093 3098 3102 3103 3103 3104 3106 3107 3110 3112 3114 3117 3119 3120 3122
2995 3000 3002 3004 3006 3011 3016 3017 3021 3025 3030 3035 3039 3042 3044 3047 3050 3052 3055 3059 3063 3066 3070 3074 3076 3079 3081 3082 3084 3086 3089 3092 3094 3097 3099 3100 3102 3105 3108 3110 3113 3115 3116 3118 3119
2991 2995 2997 2999 3002 3006 3009 3011 3016 3021 3025 3029 3034 3039 3041 3044 3047 3049 3052 3055 3057 3061 3064 3068 3071 3075 3078 3080 3082 3084 3086 3088 3092 3093 3094 3097 3098 3101 3105 3107 3108 3110 3113 3115 3116
2985 2988 2991 2995 2996 3001 3002 3007 3013 3018 3020 3023 3028 3033 3037 3041 3043 3045 3048 3052 3055 3058 3060 3064 3067 3071 3075 3077 3080 3082 3079 3082 3085 3086 3089 3090 3092 3098 3099 3100 3103 3106 3109 3112 3113